Terug naar catalogus

ELISA W23

ActiefMilitairSSO
NORAD 38009·PAYLOAD·🇫🇷 France

Gelanceerd Dec 17, 2011 vanaf Guiana Space Centre

Loading…

Volgende Passages (komende 24 uur)

TLE

VersSource: Space-Track

Epoch: Sep 14, 2026, 22:15 UTC

1 38009U 11076C   26257.92752440  .00000628  00000-0  11589-3 0  9993
2 38009  97.8498 234.3976 0001206  37.5483 322.5807 14.68640452788505

Volg ELISA W23 in realtime met AllMySat

Download on the App Store